When you browse on this site, cookies collect data to enhance your experience and personalize the content and advertising you see.
Visit our Privacy Policy to learn more. By continuing to use the site, you agree to this use of cookies and data.
  • En España
  • Lista de países
  • Para 7 días
  • Temperatura del agua
  • Mapa Satelital
  • El tiempo en el mapa
  • Informadores
  • user-avatar
    Iniciar sesión

    Tiempo cada hora Ahmedabad

    Hoy, 18 Febrero, Lunes

    Tiempo Temperatura Precipitaciones Viento Presión Humedad
    00:00 +22°C° 0 mm 1 mps 754 mmHg 22%
    01:00 +22°C° 0 mm 1 mps 754 mmHg 22%
    02:00 +22°C° 0 mm 1 mps 754 mmHg 22%
    03:00 +21°C° 0 mm 1 mps 754 mmHg 24%
    04:00 +21°C° 0 mm 1 mps 754 mmHg 26%
    05:00 +21°C° 0 mm 1 mps 753 mmHg 26%
    06:00 +20°C° 0 mm 2 mps 754 mmHg 30%
    07:00 +21°C° 0 mm 2 mps 754 mmHg 33%
    08:00 +21°C° 0 mm 3 mps 755 mmHg 37%
    09:00 +25°C° 0 mm 3 mps 755 mmHg 32%
    10:00 +27°C° 0 mm 3 mps 755 mmHg 27%
    11:00 +31°C° 0 mm 3 mps 755 mmHg 20%
    12:00 +33°C° 0 mm 3 mps 754 mmHg 17%
    13:00 +34°C° 0 mm 4 mps 753 mmHg 15%
    14:00 +35°C° 0 mm 4 mps 753 mmHg 13%
    15:00 +35°C° 0 mm 4 mps 752 mmHg 14%
    16:00 +34°C° 0 mm 4 mps 752 mmHg 15%
    17:00 +34°C° 0 mm 2 mps 751 mmHg 14%
    18:00 +30°C° 0 mm 2 mps 751 mmHg 17%
    19:00 +28°C° 0 mm 2 mps 752 mmHg 20%
    20:00 +26°C° 0 mm 2 mps 752 mmHg 24%
    21:00 +25°C° 0 mm 2 mps 752 mmHg 26%
    22:00 +25°C° 0 mm 2 mps 752 mmHg 29%
    23:00 +24°C° 0 mm 1 mps 752 mmHg 31%

    Mañana, 19 Febrero, Martes

    Tiempo Temperatura Precipitaciones Viento Presión Humedad
    00:00 +24°C° 0 mm 2 mps 752 mmHg 36%
    01:00 +23°C° 0 mm 2 mps 752 mmHg 41%
    02:00 +23°C° 0 mm 2 mps 752 mmHg 47%
    03:00 +21°C° 0 mm 2 mps 752 mmHg 54%
    04:00 +20°C° 0 mm 2 mps 752 mmHg 61%
    05:00 +20°C° 0 mm 2 mps 752 mmHg 68%
    06:00 +21°C° 0 mm 1 mps 753 mmHg 67%
    07:00 +22°C° 0 mm 1 mps 754 mmHg 66%
    08:00 +21°C° 0 mm 0 mps 754 mmHg 65%
    09:00 +23°C° 0 mm 0 mps 755 mmHg 56%
    10:00 +26°C° 0 mm 0 mps 755 mmHg 46%
    11:00 +28°C° 0 mm 0 mps 755 mmHg 37%
    12:00 +31°C° 0 mm 1 mps 755 mmHg 32%
    13:00 +33°C° 0 mm 1 mps 754 mmHg 27%
    14:00 +35°C° 0 mm 2 mps 754 mmHg 21%
    15:00 +35°C° 0 mm 2 mps 753 mmHg 21%
    16:00 +35°C° 0 mm 2 mps 753 mmHg 21%
    17:00 +35°C° 0 mm 2 mps 753 mmHg 20%
    18:00 +32°C° 0 mm 2 mps 754 mmHg 24%
    19:00 +30°C° 0 mm 2 mps 754 mmHg 28%
    20:00 +28°C° 0 mm 3 mps 755 mmHg 32%
    21:00 +27°C° 0 mm 3 mps 755 mmHg 35%
    22:00 +26°C° 0 mm 2 mps 755 mmHg 38%
    23:00 +26°C° 0 mm 2 mps 755 mmHg 42%

    Pasado mañana, 20 Febrero, Miércoles

    Tiempo Temperatura Precipitaciones Viento Presión Humedad
    00:00 +25°C° 0 mm 2 mps 755 mmHg 45%
    01:00 +25°C° 0 mm 2 mps 755 mmHg 47%
    02:00 +24°C° 0 mm 2 mps 755 mmHg 50%
    03:00 +24°C° 0 mm 2 mps 755 mmHg 52%
    04:00 +23°C° 0 mm 2 mps 754 mmHg 54%
    05:00 +23°C° 0 mm 2 mps 754 mmHg 56%
    06:00 +24°C° 0 mm 2 mps 755 mmHg 53%
    07:00 +24°C° 0 mm 2 mps 755 mmHg 49%
    08:00 +25°C° 0 mm 3 mps 756 mmHg 46%
    09:00 +28°C° 0 mm 4 mps 756 mmHg 38%
    10:00 +32°C° 0 mm 5 mps 756 mmHg 30%
    11:00 +35°C° 0 mm 5 mps 756 mmHg 22%
    12:00 +37°C° 0 mm 5 mps 755 mmHg 19%
    13:00 +38°C° 0 mm 4 mps 754 mmHg 16%
    14:00 +41°C° 0 mm 4 mps 753 mmHg 13%
    15:00 +40°C° 0 mm 4 mps 753 mmHg 13%
    16:00 +40°C° 0 mm 5 mps 753 mmHg 13%
    17:00 +39°C° 0 mm 5 mps 753 mmHg 14%
    18:00 +36°C° 0 mm 4 mps 754 mmHg 16%
    19:00 +33°C° 0 mm 3 mps 754 mmHg 18%
    20:00 +30°C° 0 mm 2 mps 755 mmHg 20%
    21:00 +29°C° 0 mm 2 mps 756 mmHg 24%
    22:00 +29°C° 0 mm 3 mps 756 mmHg 28%
    23:00 +28°C° 0 mm 4 mps 756 mmHg 32%

    21 Febrero, Jueves

    Tiempo Temperatura Precipitaciones Viento Presión Humedad
    00:00 +27°C° 0 mm 4 mps 756 mmHg 38%
    01:00 +26°C° 0 mm 4 mps 756 mmHg 44%
    02:00 +25°C° 0 mm 4 mps 756 mmHg 50%
    03:00 +23°C° 0 mm 4 mps 756 mmHg 59%
    04:00 +22°C° 0 mm 4 mps 756 mmHg 67%
    05:00 +21°C° 0 mm 3 mps 756 mmHg 75%
    06:00 +22°C° 0 mm 3 mps 756 mmHg 76%
    07:00 +22°C° 0 mm 3 mps 757 mmHg 76%
    08:00 +24°C° 0 mm 3 mps 758 mmHg 77%
    09:00 +26°C° 0 mm 3 mps 758 mmHg 66%
    10:00 +28°C° 0 mm 3 mps 758 mmHg 55%
    11:00 +30°C° 0 mm 3 mps 759 mmHg 43%
    12:00 +33°C° 0 mm 3 mps 758 mmHg 38%
    13:00 +34°C° 0 mm 3 mps 757 mmHg 32%
    14:00 +35°C° 0 mm 3 mps 756 mmHg 27%
    15:00 +35°C° 0 mm 3 mps 755 mmHg 28%
    16:00 +35°C° 0 mm 4 mps 755 mmHg 29%
    17:00 +35°C° 0 mm 4 mps 755 mmHg 30%
    18:00 +33°C° 0 mm 4 mps 755 mmHg 37%
    19:00 +30°C° 0 mm 4 mps 756 mmHg 44%
    20:00 +28°C° 0 mm 3 mps 756 mmHg 51%
    21:00 +27°C° 0 mm 3 mps 757 mmHg 54%
    22:00 +26°C° 0 mm 3 mps 757 mmHg 56%
    23:00 +25°C° 0 mm 2 mps 757 mmHg 59%

    22 Febrero, Viernes

    Tiempo Temperatura Precipitaciones Viento Presión Humedad
    00:00 +25°C° 0 mm 2 mps 757 mmHg 58%
    01:00 +25°C° 0 mm 2 mps 756 mmHg 58%
    02:00 +24°C° 0 mm 3 mps 756 mmHg 57%
    03:00 +24°C° 0 mm 3 mps 756 mmHg 57%
    04:00 +22°C° 0 mm 3 mps 756 mmHg 57%
    05:00 +22°C° 0 mm 3 mps 756 mmHg 56%
    06:00 +22°C° 0 mm 3 mps 756 mmHg 56%
    07:00 +24°C° 0 mm 3 mps 757 mmHg 55%
    08:00 +24°C° 0 mm 3 mps 758 mmHg 54%
    09:00 +27°C° 0 mm 3 mps 758 mmHg 47%
    10:00 +29°C° 0 mm 2 mps 758 mmHg 40%
    11:00 +31°C° 0 mm 2 mps 758 mmHg 33%
    12:00 +33°C° 0 mm 3 mps 757 mmHg 28%
    13:00 +35°C° 0 mm 3 mps 756 mmHg 24%
    14:00 +36°C° 0 mm 3 mps 755 mmHg 20%
    15:00 +36°C° 0 mm 4 mps 755 mmHg 20%
    16:00 +35°C° 0 mm 4 mps 754 mmHg 20%
    17:00 +35°C° 0 mm 5 mps 754 mmHg 20%
    18:00 +33°C° 0 mm 4 mps 755 mmHg 23%
    19:00 +29°C° 0 mm 4 mps 755 mmHg 27%
    20:00 +27°C° 0 mm 4 mps 756 mmHg 31%
    21:00 +26°C° 0 mm 3 mps 756 mmHg 30%
    22:00 +26°C° 0 mm 3 mps 756 mmHg 30%
    23:00 +25°C° 0 mm 3 mps 756 mmHg 30%

    23 Febrero, Sábado

    Tiempo Temperatura Precipitaciones Viento Presión Humedad
    00:00 +24°C° 0 mm 2 mps 756 mmHg 29%
    01:00 +23°C° 0 mm 2 mps 755 mmHg 29%
    02:00 +23°C° 0 mm 2 mps 755 mmHg 29%
    03:00 +23°C° 0 mm 2 mps 755 mmHg 30%
    04:00 +23°C° 0 mm 1 mps 755 mmHg 31%
    05:00 +23°C° 0 mm 1 mps 755 mmHg 32%
    06:00 +23°C° 0 mm 1 mps 755 mmHg 32%
    07:00 +24°C° 0 mm 1 mps 755 mmHg 32%
    08:00 +25°C° 0 mm 1 mps 756 mmHg 32%
    09:00 +27°C° 0 mm 1 mps 756 mmHg 28%
    10:00 +29°C° 0 mm 2 mps 756 mmHg 24%
    11:00 +31°C° 0 mm 2 mps 756 mmHg 20%
    12:00 +32°C° 0 mm 2 mps 755 mmHg 18%
    13:00 +34°C° 0 mm 2 mps 754 mmHg 17%
    14:00 +35°C° 0 mm 2 mps 753 mmHg 15%
    15:00 +35°C° 0 mm 2 mps 753 mmHg 15%
    16:00 +35°C° 0 mm 3 mps 753 mmHg 15%
    17:00 +35°C° 0 mm 3 mps 753 mmHg 15%
    18:00 +33°C° 0 mm 3 mps 753 mmHg 17%
    19:00 +30°C° 0 mm 4 mps 754 mmHg 19%
    20:00 +28°C° 0 mm 4 mps 754 mmHg 21%
    21:00 +27°C° 0 mm 4 mps 754 mmHg 22%
    22:00 +26°C° 0 mm 4 mps 754 mmHg 23%
    23:00 +25°C° 0 mm 3 mps 754 mmHg 24%
    Mostrar más